Stündliche Wetter Jumashuy

Heute, 3 März, Mittwoch

Zeit Temperatur Niederschläge Wind Luftdruck Luftfeuchtigkeit
00:00 +12°C° 0 mm 1 m/S 731 mmHg 34%
01:00 +12°C° 0 mm 1 m/S 731 mmHg 36%
02:00 +11°C° 0 mm 1 m/S 731 mmHg 38%
03:00 +11°C° 0.1 mm 1 m/S 731 mmHg 46%
04:00 +11°C° 0.1 mm 1 m/S 731 mmHg 54%
05:00 +10°C° 0 mm 1 m/S 731 mmHg 64%
06:00 +10°C° 0.2 mm 1 m/S 731 mmHg 66%
07:00 +10°C° 0.2 mm 1 m/S 731 mmHg 68%
08:00 +9°C° 0.2 mm 2 m/S 731 mmHg 70%
09:00 +10°C° 0.1 mm 2 m/S 731 mmHg 66%
10:00 +11°C° 0.1 mm 1 m/S 730 mmHg 63%
11:00 +12°C° 0 mm 2 m/S 730 mmHg 62%
12:00 +12°C° 0 mm 2 m/S 730 mmHg 61%
13:00 +12°C° 0 mm 2 m/S 730 mmHg 60%
14:00 +12°C° 0 mm 3 m/S 729 mmHg 60%
15:00 +12°C° 0 mm 3 m/S 730 mmHg 60%
16:00 +12°C° 0 mm 3 m/S 730 mmHg 60%
17:00 +12°C° 0 mm 3 m/S 730 mmHg 60%
18:00 +11°C° 0 mm 3 m/S 730 mmHg 64%
19:00 +10°C° 0 mm 3 m/S 731 mmHg 69%
20:00 +9°C° 0 mm 3 m/S 731 mmHg 73%
21:00 +8°C° 0 mm 2 m/S 731 mmHg 75%
22:00 +8°C° 0 mm 2 m/S 731 mmHg 77%
23:00 +9°C° 0 mm 1 m/S 731 mmHg 79%

Morgen, 4 März, Donnerstag

Zeit Temperatur Niederschläge Wind Luftdruck Luftfeuchtigkeit
00:00 +8°C° 0 mm 1 m/S 731 mmHg 82%
01:00 +8°C° 0 mm 1 m/S 731 mmHg 84%
02:00 +7°C° 0 mm 1 m/S 731 mmHg 87%
03:00 +6°C° 0 mm 0 m/S 731 mmHg 87%
04:00 +6°C° 0 mm 0 m/S 731 mmHg 87%
05:00 +5°C° 0 mm 0 m/S 730 mmHg 87%
06:00 +6°C° 0 mm 0 m/S 731 mmHg 84%
07:00 +7°C° 0 mm 0 m/S 731 mmHg 81%
08:00 +7°C° 0 mm 0 m/S 731 mmHg 78%
09:00 +10°C° 0 mm 1 m/S 730 mmHg 70%
10:00 +10°C° 0 mm 2 m/S 730 mmHg 62%
11:00 +13°C° 0 mm 2 m/S 729 mmHg 54%
12:00 +14°C° 0 mm 2 m/S 729 mmHg 49%
13:00 +14°C° 0 mm 2 m/S 729 mmHg 44%
14:00 +15°C° 0 mm 2 m/S 728 mmHg 40%
15:00 +15°C° 0 mm 2 m/S 728 mmHg 39%
16:00 +15°C° 0 mm 2 m/S 728 mmHg 39%
17:00 +15°C° 0 mm 1 m/S 729 mmHg 39%
18:00 +15°C° 0 mm 1 m/S 729 mmHg 42%
19:00 +14°C° 0 mm 1 m/S 730 mmHg 45%
20:00 +13°C° 0 mm 1 m/S 730 mmHg 48%
21:00 +12°C° 0.6 mm 1 m/S 730 mmHg 59%
22:00 +11°C° 0.6 mm 1 m/S 730 mmHg 70%
23:00 +10°C° 0.6 mm 1 m/S 731 mmHg 80%

übermorgen, 5 März, Freitag

Zeit Temperatur Niederschläge Wind Luftdruck Luftfeuchtigkeit
00:00 +10°C° 0.5 mm 1 m/S 731 mmHg 79%
01:00 +9°C° 0.5 mm 2 m/S 731 mmHg 78%
02:00 +10°C° 0.5 mm 2 m/S 731 mmHg 77%
03:00 +10°C° 0.1 mm 3 m/S 731 mmHg 75%
04:00 +10°C° 0.1 mm 4 m/S 731 mmHg 74%
05:00 +9°C° 0.1 mm 5 m/S 732 mmHg 73%
06:00 +8°C° 0 mm 7 m/S 732 mmHg 68%
07:00 +7°C° 0 mm 8 m/S 733 mmHg 63%
08:00 +7°C° 0 mm 10 m/S 734 mmHg 57%
09:00 +8°C° 0 mm 9 m/S 734 mmHg 51%
10:00 +10°C° 0 mm 9 m/S 734 mmHg 45%
11:00 +11°C° 0 mm 8 m/S 734 mmHg 39%
12:00 +12°C° 0 mm 7 m/S 733 mmHg 36%
13:00 +13°C° 0 mm 5 m/S 733 mmHg 33%
14:00 +14°C° 0 mm 4 m/S 733 mmHg 30%
15:00 +14°C° 0 mm 3 m/S 733 mmHg 31%
16:00 +14°C° 0 mm 3 m/S 733 mmHg 31%
17:00 +15°C° 0 mm 2 m/S 733 mmHg 31%
18:00 +14°C° 0 mm 2 m/S 733 mmHg 35%
19:00 +12°C° 0 mm 3 m/S 734 mmHg 40%
20:00 +11°C° 0 mm 3 m/S 734 mmHg 44%
21:00 +10°C° 0 mm 3 m/S 734 mmHg 49%
22:00 +9°C° 0 mm 2 m/S 734 mmHg 53%
23:00 +9°C° 0 mm 2 m/S 734 mmHg 58%

6 März, Samstag

Zeit Temperatur Niederschläge Wind Luftdruck Luftfeuchtigkeit
00:00 +8°C° 0 mm 2 m/S 734 mmHg 60%
01:00 +8°C° 0 mm 2 m/S 733 mmHg 61%
02:00 +7°C° 0 mm 2 m/S 732 mmHg 63%
03:00 +7°C° 0 mm 2 m/S 732 mmHg 62%
04:00 +6°C° 0 mm 2 m/S 731 mmHg 61%
05:00 +6°C° 0 mm 2 m/S 730 mmHg 60%
06:00 +6°C° 0 mm 2 m/S 730 mmHg 58%
07:00 +8°C° 0 mm 1 m/S 729 mmHg 56%
08:00 +8°C° 0 mm 1 m/S 729 mmHg 54%
09:00 +9°C° 0 mm 2 m/S 727 mmHg 47%
10:00 +10°C° 0 mm 3 m/S 726 mmHg 39%
11:00 +12°C° 0 mm 3 m/S 724 mmHg 32%
12:00 +13°C° 0 mm 3 m/S 723 mmHg 29%
13:00 +15°C° 0 mm 2 m/S 723 mmHg 25%
14:00 +16°C° 0 mm 2 m/S 722 mmHg 22%
15:00 +16°C° 0 mm 2 m/S 722 mmHg 22%
16:00 +16°C° 0 mm 2 m/S 722 mmHg 22%
17:00 +16°C° 0 mm 1 m/S 722 mmHg 22%
18:00 +15°C° 0 mm 2 m/S 723 mmHg 25%
19:00 +14°C° 0 mm 2 m/S 723 mmHg 29%
20:00 +13°C° 0 mm 3 m/S 724 mmHg 32%
21:00 +13°C° 0 mm 2 m/S 724 mmHg 34%
22:00 +13°C° 0 mm 2 m/S 724 mmHg 35%
23:00 +12°C° 0 mm 1 m/S 725 mmHg 37%

7 März, Sonntag

Zeit Temperatur Niederschläge Wind Luftdruck Luftfeuchtigkeit
00:00 +12°C° 0 mm 1 m/S 725 mmHg 39%
01:00 +10°C° 0 mm 2 m/S 725 mmHg 42%
02:00 +10°C° 0 mm 2 m/S 724 mmHg 44%
03:00 +10°C° 0 mm 2 m/S 725 mmHg 46%
04:00 +9°C° 0 mm 2 m/S 725 mmHg 49%
05:00 +9°C° 0 mm 2 m/S 725 mmHg 51%
06:00 +9°C° 0 mm 3 m/S 725 mmHg 53%
07:00 +8°C° 0 mm 4 m/S 726 mmHg 54%
08:00 +8°C° 0 mm 5 m/S 726 mmHg 56%
09:00 +9°C° 0 mm 5 m/S 726 mmHg 54%
10:00 +10°C° 0 mm 5 m/S 726 mmHg 53%
11:00 +12°C° 0 mm 5 m/S 726 mmHg 51%
12:00 +12°C° 0 mm 5 m/S 726 mmHg 48%
13:00 +13°C° 0 mm 5 m/S 726 mmHg 45%
14:00 +14°C° 0 mm 5 m/S 726 mmHg 42%
15:00 +13°C° 0 mm 5 m/S 726 mmHg 44%
16:00 +13°C° 0 mm 5 m/S 726 mmHg 45%
17:00 +13°C° 0 mm 5 m/S 726 mmHg 46%
18:00 +12°C° 0 mm 4 m/S 726 mmHg 50%
19:00 +11°C° 0 mm 4 m/S 727 mmHg 54%
20:00 +10°C° 0 mm 3 m/S 727 mmHg 58%
21:00 +10°C° 0 mm 2 m/S 728 mmHg 59%
22:00 +9°C° 0 mm 2 m/S 728 mmHg 61%
23:00 +10°C° 0 mm 1 m/S 728 mmHg 62%

8 März, Montag

Zeit Temperatur Niederschläge Wind Luftdruck Luftfeuchtigkeit
00:00 +9°C° 0 mm 1 m/S 728 mmHg 64%
01:00 +9°C° 0 mm 1 m/S 727 mmHg 66%
02:00 +8°C° 0 mm 1 m/S 727 mmHg 68%
03:00 +8°C° 0 mm 1 m/S 727 mmHg 69%
04:00 +8°C° 0 mm 1 m/S 728 mmHg 70%
05:00 +7°C° 0 mm 0 m/S 728 mmHg 71%
06:00 +7°C° 0 mm 0 m/S 728 mmHg 69%
07:00 +9°C° 0 mm 1 m/S 728 mmHg 67%
08:00 +9°C° 0 mm 1 m/S 729 mmHg 65%
09:00 +10°C° 0 mm 1 m/S 728 mmHg 60%
10:00 +12°C° 0 mm 1 m/S 728 mmHg 55%
11:00 +13°C° 0 mm 2 m/S 728 mmHg 51%
12:00 +14°C° 0 mm 2 m/S 728 mmHg 47%
13:00 +15°C° 0 mm 2 m/S 728 mmHg 43%
14:00 +16°C° 0 mm 2 m/S 728 mmHg 40%
15:00 +16°C° 0 mm 2 m/S 728 mmHg 39%
16:00 +16°C° 0 mm 1 m/S 728 mmHg 38%
17:00 +16°C° 0 mm 1 m/S 728 mmHg 37%
18:00 +15°C° 0 mm 1 m/S 729 mmHg 40%
19:00 +15°C° 0 mm 1 m/S 729 mmHg 42%
20:00 +14°C° 0 mm 1 m/S 730 mmHg 45%
21:00 +13°C° 0 mm 1 m/S 730 mmHg 46%
22:00 +13°C° 0 mm 1 m/S 730 mmHg 47%
23:00 +13°C° 0 mm 1 m/S 730 mmHg 48%
Mehr zeigen

Wir brauchen deine Erlaubnis

Meteoprog und unser Service Anbieter werden persönliche Daten aufbewahren, so wie Cookies, Geräte Bezeichnung oder ähnliche Technologien von deinem Gerät und Prozess, so wie Persönliche Daten Inhalte und Werbungen, genauso wie social Media und den Verkehr zu analysieren.

  • Aufbewahrung und/oder Zugang zu deiner Geräte Informationen.

    Cookies, Geräte Bezeichnung oder andere Informationen, können aufbewahrt oder Zugang zu deinem Gerät erhalten, für den Grund, der oben angegeben wird.

  • Personalisierte Werbung und Inhalte, Messungen, Einblick in das Publikum und Produkt Entwicklung.

    Werbungen und Inhalte können personalisiert werden, basierend auf ein Profil. Mehr Daten können besser personalisierte Werbungen und Inhalte hinzufügen. Werbung und Inhalte können gezeigt und gemessen werden. Einblicke über das Publikum, welche die Werbung gesehen haben und den Inhalt, können abgeleitet werden. So wie Daten können genutzt werden, um es zu verbessern oder die Benutzer Erfahrung zu verbessern das System und die Software.

Wenn du “Ich stimme zu” klickst, erlaubst du uns, die Cookies zu benutzen die Geräte Bezeichnung, den Web oder ähnliche Technologien zu benutzen. Deine Settings, können in deinem Gerät bei deinem Browser geändert werden.

Für den bestimmten Zweck, berechtigten Interessen beruhen darauf, mehr als auf den Inhalt. Du kannst mehr darüber in unseren Privaten und Cookie Politik lesen.